Flag for Spain Weather past 2 weeks in Huelva, Spain

Now
81 °F

Sunny.


Feels Like: 81 °F
Forecast: 71 / 87 °F
Wind: 10 mph from Northeast

Location: Rota Airport

Current Time: Aug 2, 2015 at 10:21:02 AM

Latest Report: Aug 2, 2015 at 10:00 AM


Visibility: 10 mi

Pressure: 29.92 "Hg

Humidity: 48%

Dew point: 59 °F

Location of HuelvaLocation

Historic Weather in Huelva — Graph

°F

Huelva temperature yesterday

Maximum temperature yesterday: 79 °F (at 4:00 PM)
Minimum temperature yesterday: 68 °F (at 6:00 AM)
Average temperature yesterday: 74 °F

Past Weeks' High & Low Weather Summary

 TemperatureHumidityPressure
High91 °F (Jul 22, 4:00 PM)94% (Jul 29, 6:00 AM)30.07 "Hg (Jul 29, 6:00 AM)
Low68 °F (Jul 24, 7:00 AM)40% (Jul 23, 3:00 PM)29.77 "Hg (Jul 31, 6:00 AM)
Average77 °F71%29.93 "Hg
* Reported Jul 18 9:00 AM — Aug 2 9:00 AM, Huelva, Weather by CustomWeather, © 2015

Note: Actual official high and low records may vary slightly from our data, if they occured in-between our weather recording intervals... More about our weather records

Advertising

Huelva weather history for previous 24 hours

 ConditionsComfort  
Time TempWeatherWind HumidityBarometerVisibility
9:00 AM
Sun, Aug 2
75 °FSunny.6 mph57%29.89 "Hg10 mi
8:00 AM70 °FPassing clouds.6 mph69%29.89 "HgN/A
7:00 AM72 °FClear.7 mph69%29.86 "Hg10 mi
6:00 AM72 °FClear.8 mph65%29.86 "Hg10 mi
5:00 AM70 °FClear.8 mph69%29.89 "Hg10 mi
4:00 AM68 °FClear.2 mph73%29.89 "Hg10 mi
3:00 AM73 °FClear.No wind65%29.89 "Hg10 mi
2:00 AM72 °FClear.No wind73%29.89 "Hg10 mi
1:00 AM73 °FClear.No wind69%29.89 "Hg10 mi
12:00 AM73 °FClear.3 mph74%29.89 "Hg10 mi
11:00 PM
Sat, Aug 1
73 °FClear.No wind78%29.89 "Hg10 mi
10:00 PM73 °FSunny.1 mph78%29.86 "Hg10 mi
9:00 PM77 °FPassing clouds.9 mph69%29.83 "HgN/A
8:00 PM77 °FPassing clouds.13 mph69%29.83 "HgN/A
7:00 PM77 °FPassing clouds.15 mph65%29.83 "HgN/A
6:00 PM77 °FPassing clouds.14 mph65%29.86 "HgN/A
5:00 PM77 °FSunny.15 mph65%29.86 "Hg10 mi
4:00 PM79 °FPassing clouds.13 mph61%29.86 "HgN/A
3:00 PM77 °FSunny.13 mph65%29.89 "Hg10 mi
2:00 PM77 °FPassing clouds.10 mph65%29.89 "HgN/A
1:00 PM77 °FPassing clouds.8 mph65%29.92 "HgN/A
12:00 PM75 °FPassing clouds.6 mph69%29.92 "HgN/A
11:00 AM75 °FSunny.5 mph74%29.92 "Hg10 mi
10:00 AM75 °FSunny.2 mph74%29.89 "Hg10 mi
Weather by CustomWeather, © 2015

See weather overviewHow to use our weather pages